Helicity
90 77 71 60 51 61 62 75 83 138 91 127 2 -4 58 86 109 143 140 136 136 100
85 97 102 119 83 53 35 69 87 74 78 89 55 66 89 91 135 156 152 151 154 131
94 106 104 110 129 125 109 107 102 119 101 71 66 77 87 104 128 149 131 124 150 163
87 93 105 109 115 116 109 109 126 123 140 116 96 78 86 87 116 130 125 139 145 164
81 80 77 86 85 88 94 104 95 75 57 51 57 52 52 60 83 106 124 124 127 146
101 99 88 72 65 65 69 66 41 32 42 34 26 13 10 23 36 53 81 100 99 115
112 106 95 88 94 91 64 75 55 46 46 32 45 55 53 10 13 18 22 40 58 89
110 104 96 96 95 78 37 44 48 50 44 49 48 54 73 23 25 28 36 35 36 31
106 103 98 92 61 37 42 43 48 53 43 60 45 98 70 38 26 35 51 65 66 68
104 98 82 59 33 44 42 41 45 57 53 59 87 111 92 45 21 23 32 50 66 71
78 70 29 25 43 38 30 36 42 52 57 52 78 115 95 33 19 13 23 27 49 54
39 24 38 43 42 40 33 35 37 36 41 45 47 115 122 49 13 19 15 10 18 53
51 45 45 41 37 36 32 32 19 22 32 48 51 95 105 77 15 20 4 0 7 59
50 41 39 39 31 23 17 11 14 21 27 43 49 72 110 97 25 5 -11 -8 -7 0
Wind_Speed
59 57 56 57 58 56 61 65 68 69 69 69 71 71 71 71 70 72 74 77 75 77
56 57 57 58 55 53 55 58 61 62 60 59 60 64 65 65 67 69 69 72 74 75
55 55 55 55 56 55 53 55 57 58 55 53 55 57 58 61 63 64 65 66 68 68
53 53 53 53 54 53 50 51 54 52 50 52 53 54 55 57 60 60 61 61 61 64
51 52 51 51 51 51 49 47 48 48 49 52 52 52 51 54 56 58 59 60 61 63
50 51 51 50 48 48 48 45 45 47 49 51 49 50 51 53 55 56 57 59 60 63
49 49 49 48 47 46 47 46 46 46 48 49 52 53 54 54 55 57 58 60 60 64
46 46 46 46 45 44 44 45 46 46 49 51 55 57 57 55 55 57 59 61 61 63
43 44 44 43 42 42 43 45 47 48 49 53 55 60 57 56 56 57 60 63 63 64
41 42 42 40 39 40 41 44 46 49 50 53 59 63 59 57 55 57 60 63 66 65
40 39 39 38 37 38 39 41 44 47 50 52 58 63 60 56 55 56 58 60 66 66
38 37 37 36 36 37 37 40 43 46 49 52 56 61 63 56 55 57 58 59 63 68
35 36 35 35 34 36 38 40 42 45 49 52 56 61 63 60 57 58 57 58 60 66
33 36 34 35 35 35 37 39 41 44 48 53 57 60 64 63 57 56 57 59 62 66
Wind_Direction
338 341 337 328 322 320 312 313 315 309 304 304 299 300 302 304 305 304 303 298 297 294
339 337 338 336 329 325 321 322 318 319 314 314 303 299 302 304 306 309 309 304 301 296
343 341 339 342 335 328 326 326 323 324 319 308 304 305 306 309 313 318 318 313 308 303
347 345 342 342 343 333 327 326 330 321 318 320 319 321 327 315 322 325 325 325 321 315
348 346 343 343 343 340 333 334 334 332 332 337 332 333 329 328 332 334 333 332 331 325
348 347 341 341 340 343 340 335 333 334 340 341 335 331 333 339 342 343 343 340 338 335
348 348 346 342 339 340 339 334 332 335 335 337 337 336 333 339 344 347 349 347 341 340
352 350 348 346 345 344 343 341 338 338 339 340 343 341 339 341 345 347 348 347 345 345
354 352 348 348 348 350 348 347 345 346 345 346 345 342 344 345 349 351 350 349 345 344
355 352 349 346 346 347 349 352 351 351 350 352 351 347 345 346 352 353 352 352 349 347
359 355 352 350 347 347 349 353 355 356 356 354 352 349 347 344 354 353 354 354 352 349
5 360 358 353 350 347 348 353 355 353 354 351 352 349 349 345 348 350 351 350 352 350
12 9 356 354 344 348 352 350 352 354 353 351 351 348 350 348 345 346 343 344 343 346
9 13 360 359 347 345 343 346 345 350 353 351 351 347 349 349 344 337 340 341 340 342